#datint,netname,site,siteID,timestamp,IntT,BattV,AirT2,AirT,AirT_Avg,AirT_Max,AirT_Min,RH_Avg,RH_Max,RH_Min,EA_Avg,Td_Avg,Td_Max,Td_Min,WindS_Smp,WindS_Avg,WindD_Avg,WindD_SD,WindS_Max,ETo,ETr,SoilT4,SoilT8,SoilVWC8,SolarW_Avg,wetstate_Avg,wetT_Avg,Precip_accum,Precip_WPG,Precip_TB
15min,AgWx,beryljct,423,16APR2020:00:00:00,47.7,12.93,43.9,46.9,46.2,48.8,44.1,38,43,32,0.398,22.0,23.0,20.5,1.096,2.0,196,36,6.8,-0.00004,-0.00002,48.8,47.3,21,0,.,.,11.68,0.00,0.00
15min,AgWx,beryljct,423,16APR2020:00:15:00,46.7,12.92,43.9,46.3,46.7,50.1,45.4,37,40,31,0.404,21.7,22.4,20.3,2.85,3.0,250,32,7.4,0.00007,0.00013,48.6,47.3,21,0,.,.,11.68,0.00,0.00
15min,AgWx,beryljct,423,16APR2020:00:30:00,45.8,12.92,48.8,45.8,43.3,45.9,41.8,44,47,38,0.403,22.9,23.3,21.9,2.959,1.9,293,40,3.9,-0.00006,-0.00006,48.5,47.3,21,0,.,.,11.68,0.00,0.00
15min,AgWx,beryljct,423,16APR2020:00:45:00,44.7,12.91,44.9,45.6,44.8,46.8,42.7,39,44,36,0.388,21.6,22.4,20.9,0.811,1.7,333,77,4.2,-0.00008,-0.00008,48.3,47.3,21,0,.,.,11.68,0.00,0.00
15min,AgWx,beryljct,423,16APR2020:01:00:00,43.7,12.89,44.7,44.3,43.8,45.6,41.4,41,46,37,0.393,21.4,22.5,20.8,1.25,0.9,129,88,2.4,-0.00019,-0.00026,48.2,47.3,21,0,.,.,11.68,0.00,0.00
15min,AgWx,beryljct,423,16APR2020:01:15:00,42.8,12.89,47.1,44.9,45.1,46.1,44.2,38,40,35,0.389,20.7,21.3,20.1,0.702,0.9,166,71,4.7,-0.00019,-0.00026,48.0,47.3,21,0,.,.,11.68,0.00,0.00
15min,AgWx,beryljct,423,16APR2020:01:30:00,42.3,12.86,39.7,41.3,43.2,46.4,40.1,42,49,36,0.408,21.6,23.1,20.5,4.077,2.4,267,21,4.3,-0.00001,0.00001,47.8,47.3,21,0,.,.,11.68,0.00,0.00
15min,AgWx,beryljct,423,16APR2020:01:45:00,41.8,12.87,39.7,39.1,42.0,44.1,38.8,45,54,40,0.436,22.1,23.8,21.1,4.319,2.4,234,8.1,4.5,-0.00001,0.00001,47.6,47.3,21,0,.,.,11.68,0.00,0.00
15min,AgWx,beryljct,423,16APR2020:02:00:00,41.3,12.86,36.7,37.2,41.4,45.1,37.2,47,55,38,0.414,22.4,23.9,21.0,2.126,3.0,216,30,4.5,0.00003,0.00007,47.5,47.3,21,0,.,.,11.68,0.00,0.00
15min,AgWx,beryljct,423,16APR2020:02:15:00,40.6,12.85,41.5,41.6,40.4,42.0,37.1,49,56,44,0.397,22.5,23.5,21.6,2.258,2.7,335,10,4.0,-0.00000,0.00003,47.3,47.3,21,0,.,.,11.68,0.00,0.00
15min,AgWx,beryljct,423,16APR2020:02:30:00,40.1,12.84,45.1,43.7,41.6,43.7,40.4,45,48,41,0.399,22.0,22.3,21.5,1.6,1.8,341,14,2.9,-0.00008,-0.00008,47.1,47.2,21,0,.,.,11.68,0.00,0.00
15min,AgWx,beryljct,423,16APR2020:02:45:00,39.9,12.84,39.6,46.6,43.3,47.8,40.0,41,47,33,0.366,21.3,22.3,19.7,3.573,2.8,359,21,4.4,0.00002,0.00007,46.9,47.2,21,0,.,.,11.68,0.00,0.00
15min,AgWx,beryljct,423,16APR2020:03:00:00,40.0,12.83,43.9,41.6,42.1,45.8,40.3,44,49,34,0.417,21.6,22.8,19.2,1.798,1.6,237,33,4.0,-0.00009,-0.00010,46.8,47.2,21,0,.,.,11.68,0.00,0.00
15min,AgWx,beryljct,423,16APR2020:03:15:00,39.8,12.82,39.0,37.8,38.4,42.0,37.1,55,60,46,0.413,23.8,24.8,22.3,0.986,1.5,286,41,3.5,-0.00012,-0.00015,46.6,47.1,21,0,.,.,11.68,0.00,0.00
15min,AgWx,beryljct,423,16APR2020:03:30:00,39.2,12.81,35.7,37.8,39.4,41.4,37.8,50,54,47,0.405,22.3,23.3,21.3,1.907,1.1,302,20,4.3,-0.00016,-0.00022,46.4,47.1,21,0,.,.,11.69,0.01,0.00
15min,AgWx,beryljct,423,16APR2020:03:45:00,38.6,12.8,32.1,37.5,39.1,40.4,37.5,51,55,48,0.386,22.4,23.4,20.9,2.324,2.4,334,60,3.6,-0.00003,-0.00002,46.2,47.1,21,0,.,.,11.69,0.00,0.00
15min,AgWx,beryljct,423,16APR2020:04:00:00,38.0,12.78,37.3,36.8,36.9,39.0,35.5,54,59,48,0.397,21.7,22.9,20.6,1.951,1.6,22,57,3.4,-0.00010,-0.00012,46.1,47.1,21,0,.,.,11.69,0.00,0.00
15min,AgWx,beryljct,423,16APR2020:04:15:00,37.3,12.79,35.8,35.9,36.1,37.1,34.8,55,58,52,0.391,21.5,22.0,20.8,0.636,1.0,66,57,2.7,-0.00016,-0.00021,45.9,47.0,21,0,.,.,11.69,0.00,0.00
15min,AgWx,beryljct,423,16APR2020:04:30:00,36.6,12.78,34.0,34.3,35.6,36.3,34.3,55,59,53,0.394,21.2,21.5,20.8,1.929,2.4,32,26,4.8,-0.00005,-0.00004,45.8,47.0,21,0,.,.,11.69,0.00,0.00
15min,AgWx,beryljct,423,16APR2020:04:45:00,36.2,12.78,35.2,35.2,35.2,35.9,33.9,59,62,57,0.407,22.3,23.3,21.5,3.573,4.5,7.3,33,8.3,0.00005,0.00008,45.6,46.9,21,0,.,.,11.69,0.00,0.00
15min,AgWx,beryljct,423,16APR2020:05:00:00,36.0,12.77,36.1,35.2,35.3,35.8,34.8,62,67,59,0.463,23.5,25.2,22.1,2.346,2.8,320,21,4.1,-0.00004,-0.00003,45.5,46.9,21,0,.,.,11.69,0.00,0.00
15min,AgWx,beryljct,423,16APR2020:05:15:00,35.9,12.76,37.3,36.9,36.4,37.0,35.3,69,73,67,0.546,27.4,29.3,25.3,1.469,2.2,350,37,4.2,-0.00009,-0.00011,45.3,46.9,21,0,.,.,11.69,0.00,0.00
15min,AgWx,beryljct,423,16APR2020:05:30:00,35.7,12.75,36.5,36.7,36.3,36.9,35.8,75,77,73,0.553,29.2,30.1,28.5,1.732,1.3,340,38,2.5,-0.00016,-0.00021,45.2,46.8,21,0,.,.,11.69,0.00,0.00
15min,AgWx,beryljct,423,16APR2020:05:45:00,35.6,12.75,36.3,35.8,36.5,37.1,35.7,76,78,74,0.550,29.6,30.3,28.7,4.494,3.0,325,16,4.5,-0.00008,-0.00008,45.0,46.8,21,0,.,.,11.69,0.01,0.00
15min,AgWx,beryljct,423,16APR2020:06:00:00,35.6,12.75,37.1,36.7,36.5,37.0,35.9,78,78,77,0.571,30.2,30.7,29.5,3.288,2.9,351,19,4.6,-0.00008,-0.00009,44.9,46.7,21,0,.,.,11.69,0.00,0.00
15min,AgWx,beryljct,423,16APR2020:06:15:00,35.6,12.75,36.8,36.1,36.4,37.0,36.0,79,80,77,0.576,30.5,30.9,29.8,4.626,3.8,36,12,6.6,0.00014,0.00024,44.8,46.7,21,0,.,.,11.69,0.00,0.00
15min,AgWx,beryljct,423,16APR2020:06:30:00,35.7,12.74,36.5,36.1,36.3,36.6,36.0,81,82,80,0.588,30.9,31.4,30.6,2.894,4.5,38,12,8.7,0.00015,0.00026,44.7,46.6,21,0,.,.,11.69,0.00,0.00
15min,AgWx,beryljct,423,16APR2020:06:45:00,35.8,12.72,36.6,36.2,36.5,36.8,36.1,81,82,80,0.585,31.2,31.7,30.8,9.67,4.6,24,17,9.7,0.00015,0.00025,44.5,46.6,21,0,.,.,11.70,0.00,0.00
15min,AgWx,beryljct,423,16APR2020:07:00:00,36.0,12.73,36.0,36.4,36.6,37.1,36.2,82,83,80,0.601,31.5,31.9,31.0,5.897,8.0,43,16,12.1,0.00023,0.00040,44.4,46.5,21,4,.,.,11.70,0.00,0.00
15min,AgWx,beryljct,423,16APR2020:07:15:00,36.4,12.75,37.0,36.7,36.6,36.8,36.3,83,83,82,0.613,31.9,32.2,31.4,10.33,11.2,53,7.9,15.5,0.00030,0.00049,44.3,46.5,21,14,.,.,11.70,0.00,0.00
15min,AgWx,beryljct,423,16APR2020:07:30:00,36.9,12.79,37.3,37.0,37.0,37.2,36.7,83,83,82,0.617,32.2,32.4,32.0,10.9,10.5,57,7.2,13.9,0.00041,0.00061,44.2,46.4,21,52,.,.,11.70,0.00,0.00
15min,AgWx,beryljct,423,16APR2020:07:45:00,37.3,12.82,37.4,37.2,37.1,37.3,37.0,83,83,83,0.624,32.4,32.7,32.3,9.05,9.3,63,7.5,13.3,0.00042,0.00060,44.1,46.4,21,57,.,.,11.70,0.00,0.00
15min,AgWx,beryljct,423,16APR2020:08:00:00,37.7,12.82,38.4,38.0,37.4,38.0,37.1,83,84,83,0.643,32.8,33.3,32.5,7.629,8.7,67,7.5,11.8,0.00053,0.00071,44.0,46.3,21,97,.,.,11.70,0.00,0.00
15min,AgWx,beryljct,423,16APR2020:08:15:00,39.0,12.89,39.9,39.4,38.9,39.4,38.0,81,83,79,0.650,33.5,33.7,33.3,10.81,10.0,63,10,13.2,0.00091,0.00115,44.0,46.3,21,229,.,.,11.69,0.00,0.00
15min,AgWx,beryljct,423,16APR2020:08:30:00,40.2,12.92,39.3,39.3,39.4,39.6,39.2,79,80,79,0.651,33.6,33.8,33.3,12.25,11.3,62,8.0,15.0,0.00090,0.00117,43.9,46.2,21,197,.,.,11.70,0.00,0.00
15min,AgWx,beryljct,423,16APR2020:08:45:00,40.9,13.01,39.6,39.7,39.4,39.7,39.0,80,81,79,0.658,33.6,34.1,33.3,12.85,10.9,61,9.3,14.3,0.00098,0.00126,43.8,46.2,21,227,.,.,11.70,0.00,0.00
15min,AgWx,beryljct,423,16APR2020:09:00:00,41.7,13.17,40.6,40.7,40.1,40.8,39.4,79,80,78,0.671,34.0,34.5,33.5,13.04,11.3,65,9.8,14.9,0.00114,0.00145,43.8,46.2,21,271,.,.,11.70,0.00,0.00
15min,AgWx,beryljct,423,16APR2020:09:15:00,42.8,13.51,41.9,41.4,41.1,41.6,40.6,77,78,76,0.671,34.4,35.1,33.9,10.46,11.2,65,9.5,15.6,0.00144,0.00179,43.8,46.1,21,352,.,.,11.69,0.00,0.00
15min,AgWx,beryljct,423,16APR2020:09:30:00,44.0,14.4,42.2,42.1,41.9,42.6,41.3,75,77,74,0.679,34.6,35.6,34.1,10.48,10.6,62,9.2,13.9,0.00171,0.00208,43.8,46.1,21,422,.,.,11.70,0.00,0.00
15min,AgWx,beryljct,423,16APR2020:09:45:00,45.2,14.49,42.7,43.1,42.6,43.3,42.0,74,76,73,0.692,35.0,36.1,34.4,8.64,9.8,67,13,13.3,0.00194,0.00233,43.8,46.0,21,475,.,.,11.70,0.00,0.00
15min,AgWx,beryljct,423,16APR2020:10:00:00,46.8,14.49,44.2,43.9,43.6,44.2,42.9,72,74,71,0.700,35.3,36.4,34.6,6.993,8.6,66,19,12.0,0.00237,0.00278,43.8,46.0,21,572,.,.,11.69,0.00,0.00
15min,AgWx,beryljct,423,16APR2020:10:15:00,48.5,14.47,45.7,44.8,44.8,45.6,43.9,70,73,68,0.696,35.7,37.4,34.7,7.541,8.3,64,15,12.7,0.00267,0.00313,43.9,45.9,21,628,.,.,11.69,0.00,0.00
15min,AgWx,beryljct,423,16APR2020:10:30:00,49.8,14.41,46.7,46.2,45.7,46.6,44.9,68,70,65,0.692,35.6,36.7,34.5,10.28,8.8,56,17,12.8,0.00285,0.00336,43.9,45.9,21,654,.,.,11.69,0.00,0.00
15min,AgWx,beryljct,423,16APR2020:10:45:00,50.9,14.45,46.2,46.3,46.1,47.1,45.2,65,67,63,0.695,35.0,36.7,33.4,9.23,7.7,59,20,12.6,0.00288,0.00339,44.1,45.8,21,627,.,.,11.69,0.00,0.00
15min,AgWx,beryljct,423,16APR2020:11:00:00,51.6,14.42,47.6,46.6,46.8,47.5,45.9,64,66,59,0.636,35.1,36.4,33.0,1.118,6.4,47,26,10.7,0.00326,0.00377,44.3,45.8,21,702,.,.,11.68,0.00,0.00
15min,AgWx,beryljct,423,16APR2020:11:15:00,52.8,14.47,49.4,48.5,47.3,48.5,46.6,62,64,59,0.733,34.9,36.6,33.1,4.384,6.0,77,25,10.8,0.00364,0.00417,44.4,45.8,21,778,.,.,11.68,0.00,0.00
15min,AgWx,beryljct,423,16APR2020:11:30:00,54.0,14.37,49.9,49.5,48.5,49.5,47.8,59,64,55,0.720,34.7,36.9,33.4,3.003,3.6,60,46,8.3,0.00401,0.00450,44.7,45.7,21,813,.,.,11.68,0.00,0.00
15min,AgWx,beryljct,423,16APR2020:11:45:00,55.2,14.36,50.0,49.8,49.1,49.9,48.2,58,61,55,0.735,35.0,37.0,32.7,3.508,5.7,101,30,9.5,0.00411,0.00471,45.0,45.7,21,846,.,.,11.67,0.00,0.00
15min,AgWx,beryljct,423,16APR2020:12:00:00,56.1,13.95,49.3,49.9,49.9,50.9,49.0,56,60,54,0.677,35.1,37.4,33.6,3.398,5.3,108,29,9.7,0.00433,0.00495,45.3,45.7,21,875,.,.,11.67,0.00,0.00
15min,AgWx,beryljct,423,16APR2020:12:15:00,57.0,13.89,52.2,51.0,50.1,51.0,49.5,53,57,50,0.648,33.7,35.4,32.2,2.587,3.0,95,78,7.4,0.00464,0.00516,45.6,45.7,21,908,.,.,11.67,0.00,0.00
15min,AgWx,beryljct,423,16APR2020:12:30:00,58.0,13.93,52.4,52.0,51.3,52.4,50.4,52,55,49,0.686,34.1,36.5,32.2,4.384,3.0,89,49,7.0,0.00406,0.00455,46.0,45.7,21,761,.,.,11.67,0.00,0.00
15min,AgWx,beryljct,423,16APR2020:12:45:00,59.3,13.86,52.5,52.6,52.6,53.5,51.7,49,54,45,0.612,34.1,36.7,31.8,5.261,3.5,54,61,8.0,0.00532,0.00596,46.5,45.7,21,1008,.,.,11.67,0.00,0.00
15min,AgWx,beryljct,423,16APR2020:13:00:00,60.8,13.86,54.1,53.1,52.9,53.4,52.4,45,47,43,0.599,32.1,33.5,30.8,1.228,2.6,345,52,7.0,0.00439,0.00492,46.9,45.7,21,797,.,.,11.66,0.00,0.00
15min,AgWx,beryljct,423,16APR2020:13:15:00,61.3,13.82,52.8,53.1,53.0,53.9,52.4,46,49,44,0.629,33.0,35.0,31.7,4.165,2.6,96,28,6.6,0.00321,0.00366,47.4,45.7,21,558,.,.,11.66,0.00,0.00
15min,AgWx,beryljct,423,16APR2020:13:30:00,61.2,13.85,56.4,54.3,53.6,54.3,53.1,46,49,42,0.698,33.2,35.4,31.4,6.642,3.6,68,36,8.7,0.00366,0.00422,47.9,45.7,21,639,.,.,11.66,0.00,0.00
15min,AgWx,beryljct,423,16APR2020:13:45:00,61.4,13.8,53.6,54.4,54.7,55.6,53.9,43,49,39,0.636,32.7,35.8,30.5,7.147,5.9,35,60,10.1,0.00445,0.00525,48.4,45.7,21,792,.,.,11.66,0.00,0.00
15min,AgWx,beryljct,423,16APR2020:14:00:00,61.7,13.82,54.4,56.3,55.2,56.5,54.3,44,48,39,0.607,33.9,36.5,31.2,6.094,6.1,73,29,10.6,0.00539,0.00627,48.8,45.8,21,996,.,.,11.66,0.00,0.00
15min,AgWx,beryljct,423,16APR2020:14:15:00,62.5,13.82,55.5,56.1,55.9,57.4,54.7,40,46,36,0.637,31.8,36.2,29.9,7.453,6.3,19,39,11.4,0.00431,0.00519,49.2,45.8,21,737,.,.,11.66,0.00,0.00
15min,AgWx,beryljct,423,16APR2020:14:30:00,62.8,13.84,55.9,56.1,56.4,57.0,55.9,38,43,36,0.648,31.2,34.2,29.6,8.22,5.0,344,57,8.9,0.00370,0.00446,49.6,45.9,21,608,.,.,11.65,0.00,0.00
15min,AgWx,beryljct,423,16APR2020:14:45:00,62.8,13.84,56.7,55.8,56.2,56.9,55.5,40,44,38,0.637,32.4,34.6,30.3,7.629,7.1,19,25,12.1,0.00366,0.00456,50.0,45.9,21,590,.,.,11.66,0.00,0.00
15min,AgWx,beryljct,423,16APR2020:15:00:00,62.9,13.82,56.4,56.9,56.8,58.4,55.7,38,44,34,0.553,31.6,34.2,28.8,3.902,6.5,7.8,26,15.0,0.00409,0.00500,50.3,46.0,21,689,.,.,11.66,0.00,0.00
15min,AgWx,beryljct,423,16APR2020:15:15:00,63.1,13.82,58.4,57.1,56.9,57.6,56.5,37,40,35,0.572,30.8,33.2,29.2,1.118,6.6,18,23,14.9,0.00378,0.00469,50.7,46.1,21,614,.,.,11.65,0.00,0.00
15min,AgWx,beryljct,423,16APR2020:15:30:00,63.1,13.86,57.3,57.0,57.3,58.1,56.7,37,40,35,0.630,31.0,33.1,29.3,8.15,8.1,3.0,27,15.1,0.00373,0.00476,51.0,46.2,21,588,.,.,11.65,0.00,0.00
15min,AgWx,beryljct,423,16APR2020:15:45:00,62.7,13.81,56.2,55.7,56.4,57.2,55.6,41,46,36,0.662,33.1,35.8,30.6,10.96,11.8,26,16,16.6,0.00365,0.00484,51.3,46.2,21,578,.,.,11.66,0.01,0.00
15min,AgWx,beryljct,423,16APR2020:16:00:00,61.4,13.84,54.5,54.1,55.0,56.1,54.1,44,47,41,0.626,33.8,36.0,32.6,14.4,13.5,36,9.1,17.5,0.00290,0.00405,51.5,46.3,21,400,.,.,11.66,0.00,0.00
15min,AgWx,beryljct,423,16APR2020:16:15:00,59.9,13.85,53.5,53.3,53.9,54.6,53.3,46,47,44,0.638,33.6,35.0,32.6,11.77,13.5,43,10,17.7,0.00267,0.00376,51.7,46.4,21,369,.,.,11.66,0.00,0.00
15min,AgWx,beryljct,423,16APR2020:16:30:00,58.5,13.94,53.3,53.3,53.3,53.6,53.1,46,48,45,0.647,33.1,34.4,32.2,10.04,12.5,36,11,16.4,0.00246,0.00348,51.9,46.5,21,334,.,.,11.66,0.00,0.00
15min,AgWx,beryljct,423,16APR2020:16:45:00,57.5,13.91,52.8,53.0,53.1,53.6,52.9,47,49,45,0.647,33.6,34.8,32.4,11.84,11.4,48,10,15.3,0.00225,0.00318,52.0,46.6,21,307,.,.,11.66,0.00,0.00
15min,AgWx,beryljct,423,16APR2020:17:00:00,56.8,13.93,53.1,53.2,52.9,53.2,52.6,47,49,45,0.647,33.3,34.6,32.2,10.52,10.2,47,14,13.9,0.00221,0.00308,52.0,46.7,21,332,.,.,11.66,0.00,0.00
15min,AgWx,beryljct,423,16APR2020:17:15:00,56.7,13.93,53.4,53.4,53.3,53.7,53.1,45,47,43,0.620,32.4,33.7,31.3,9.29,9.9,37,12,14.0,0.00229,0.00318,52.1,46.8,21,368,.,.,11.66,0.00,0.00
15min,AgWx,beryljct,423,16APR2020:17:30:00,56.7,13.9,53.3,53.4,53.4,53.9,53.2,45,47,43,0.625,32.4,34.2,31.5,12.39,9.1,43,15,13.1,0.00221,0.00306,52.1,46.9,21,362,.,.,11.66,0.00,0.00
15min,AgWx,beryljct,423,16APR2020:17:45:00,57.3,13.84,54.6,54.9,54.1,55.2,53.2,44,47,41,0.613,32.6,34.3,30.9,6.357,8.6,55,14,13.5,0.00280,0.00368,52.1,47.0,21,483,.,.,11.66,0.00,0.00
15min,AgWx,beryljct,423,16APR2020:18:00:00,58.0,13.89,55.8,54.7,54.3,54.8,54.0,43,45,41,0.592,32.1,34.0,31.2,5.809,8.1,64,18,11.9,0.00228,0.00311,52.1,47.1,21,375,.,.,11.66,0.00,0.00
15min,AgWx,beryljct,423,16APR2020:18:15:00,58.6,13.82,55.0,54.7,54.8,55.1,54.5,41,43,40,0.598,31.8,33.2,30.6,7.256,8.0,56,12,12.0,0.00243,0.00329,52.1,47.2,21,398,.,.,11.66,0.00,0.00
15min,AgWx,beryljct,423,16APR2020:18:30:00,58.9,13.8,54.5,54.4,54.7,55.0,54.3,42,45,40,0.598,32.0,34.1,30.5,7.41,7.8,62,8.8,11.8,0.00203,0.00284,52.1,47.3,21,322,.,.,11.66,0.00,0.00
15min,AgWx,beryljct,423,16APR2020:18:45:00,58.5,13.87,52.7,52.9,53.8,54.6,52.9,41,43,40,0.564,30.9,32.2,29.9,11.88,12.5,49,16,18.2,0.00194,0.00301,52.2,47.4,21,241,.,.,11.67,0.00,0.00
15min,AgWx,beryljct,423,16APR2020:19:00:00,57.2,13.87,52.2,52.3,52.5,53.0,52.2,43,44,42,0.571,30.7,31.8,30.0,16.38,13.5,47,8.7,17.8,0.00174,0.00279,52.2,47.4,21,199,.,.,11.67,0.00,0.00
15min,AgWx,beryljct,423,16APR2020:19:15:00,56.2,13.27,51.4,51.3,51.9,52.4,51.3,43,45,42,0.565,30.2,30.8,29.9,17.73,15.0,44,8.2,18.9,0.00077,0.00089,52.2,47.5,21,183,.,.,11.67,0.00,0.00
15min,AgWx,beryljct,423,16APR2020:19:30:00,54.9,13.18,49.7,50.1,50.8,51.3,50.1,44,45,43,0.552,29.8,30.5,29.3,12.58,14.1,41,8.6,17.5,0.00065,0.00076,52.1,47.6,21,105,.,.,11.67,0.00,0.00
15min,AgWx,beryljct,423,16APR2020:19:45:00,53.2,13.12,48.2,48.1,49.0,50.1,48.1,46,47,44,0.541,29.0,29.6,28.8,9.97,13.0,43,6.4,18.0,0.00051,0.00060,52.0,47.6,21,30,.,.,11.67,0.00,0.00
15min,AgWx,beryljct,423,16APR2020:20:00:00,51.4,13.09,47.3,47.3,47.6,48.1,47.1,47,48,46,0.524,28.6,29.2,28.2,11.93,11.5,44,7.0,16.2,0.00043,0.00052,51.9,47.7,21,24,.,.,11.67,0.00,0.00
15min,AgWx,beryljct,423,16APR2020:20:15:00,49.9,13.05,45.3,45.9,46.6,47.3,45.9,48,49,47,0.515,28.0,28.3,27.7,6.752,10.2,42,6.7,13.7,0.00037,0.00045,51.8,47.8,21,6,.,.,11.67,0.00,0.00
15min,AgWx,beryljct,423,16APR2020:20:30:00,48.5,13.03,45.2,45.1,45.6,45.9,45.1,49,50,48,0.505,27.6,28.0,27.3,8.59,9.5,45,7.9,14.8,0.00032,0.00040,51.7,47.8,21,1,.,.,11.67,0.00,0.00
15min,AgWx,beryljct,423,16APR2020:20:45:00,47.3,13.03,44.8,43.9,44.6,45.2,43.9,50,51,49,0.499,27.2,27.4,26.9,7.432,7.6,54,7.6,10.7,0.00025,0.00033,51.5,47.9,21,0,.,.,11.68,0.01,0.00
15min,AgWx,beryljct,423,16APR2020:21:00:00,46.2,13,44.1,43.6,43.8,44.2,43.4,51,52,50,0.494,26.9,27.2,26.8,9.19,7.8,56,9.5,11.4,0.00024,0.00031,51.3,47.9,21,0,.,.,11.68,0.00,0.00
15min,AgWx,beryljct,423,16APR2020:21:15:00,45.4,13,43.2,42.8,43.4,43.9,42.7,51,52,50,0.485,26.5,26.8,26.3,8.42,8.9,43,7.3,12.5,0.00027,0.00034,51.1,48.0,21,0,.,.,11.68,0.00,0.00
15min,AgWx,beryljct,423,16APR2020:21:30:00,44.5,12.98,42.0,41.8,42.3,42.7,41.7,52,54,51,0.481,26.1,26.3,25.9,6.182,7.3,41,7.4,12.5,0.00021,0.00028,50.9,48.0,21,0,.,.,11.68,0.00,0.00
15min,AgWx,beryljct,423,16APR2020:21:45:00,43.7,12.98,41.8,41.0,41.5,41.8,41.0,54,55,53,0.474,25.9,26.1,25.7,8.18,7.2,43,7.5,12.0,0.00019,0.00025,50.7,48.1,21,0,.,.,11.68,0.00,0.00
15min,AgWx,beryljct,423,16APR2020:22:00:00,42.8,12.98,40.5,39.9,40.6,41.1,39.9,55,56,54,0.468,25.7,25.9,25.4,4.231,4.8,57,10,7.5,0.00010,0.00015,50.5,48.1,21,0,.,.,11.68,0.00,0.00
15min,AgWx,beryljct,423,16APR2020:22:15:00,41.7,12.97,38.7,38.7,39.2,39.9,38.7,57,58,56,0.459,25.4,25.7,25.0,2.302,3.4,47,7.0,4.7,0.00001,0.00004,50.3,48.1,21,0,.,.,11.68,0.00,0.00
15min,AgWx,beryljct,423,16APR2020:22:30:00,40.5,12.95,38.8,39.0,38.7,39.0,38.3,57,58,56,0.452,24.9,25.2,24.6,1.469,1.7,49,20,2.7,-0.00010,-0.00011,50.1,48.1,21,0,.,.,11.68,0.00,0.00
15min,AgWx,beryljct,423,16APR2020:22:45:00,39.6,12.94,36.9,37.7,38.2,38.9,37.7,58,58,56,0.448,24.5,24.7,24.3,3.595,2.3,58,18,6.0,-0.00006,-0.00005,49.8,48.2,21,0,.,.,11.68,0.00,0.00
15min,AgWx,beryljct,423,16APR2020:23:00:00,38.9,12.94,38.0,37.4,37.4,37.8,37.1,60,60,58,0.448,24.7,25.0,24.3,3.573,3.8,56,11,5.1,0.00002,0.00005,49.6,48.1,21,0,.,.,11.68,0.00,0.00
15min,AgWx,beryljct,423,16APR2020:23:15:00,38.4,12.91,37.6,37.4,37.3,37.6,37.1,59,60,58,0.444,24.4,24.6,24.2,3.266,4.7,43,7.7,6.2,0.00006,0.00010,49.4,48.1,21,0,.,.,11.68,0.00,0.00
15min,AgWx,beryljct,423,16APR2020:23:30:00,38.0,12.92,37.8,37.4,37.5,37.8,37.2,58,59,57,0.437,24.0,24.3,23.7,5.459,3.3,54,12,5.6,0.00001,0.00003,49.1,48.2,20,0,.,.,11.68,0.00,0.00
15min,AgWx,bigpiney,439,16APR2020:00:00:00,29.7,12.61,24.7,24.4,24.5,24.6,24.4,94,94,94,0.421,23.0,23.2,22.9,1.973,4.3,85,9.1,6.3,0.00001,0.00001,31.7,31.9,17,0,1,0.0,6.08,0.00,0.00
15min,AgWx,bigpiney,439,16APR2020:00:15:00,29.7,12.59,24.7,24.3,24.3,24.5,24.1,94,94,94,0.417,22.8,23.0,22.6,5.327,2.5,74,77,6.0,-0.00000,0.00000,31.7,31.8,17,0,1,0.0,6.08,0.00,0.00
15min,AgWx,bigpiney,439,16APR2020:00:30:00,29.6,12.59,24.5,24.1,24.2,24.4,24.1,94,94,94,0.413,22.6,22.9,22.5,6.094,4.7,281,13,6.3,0.00001,0.00001,31.7,31.9,17,0,1,0.0,6.08,0.00,0.00
15min,AgWx,bigpiney,439,16APR2020:00:45:00,29.5,12.59,24.0,23.9,24.0,24.1,23.7,94,94,93,0.408,22.4,22.6,21.9,4.143,4.7,279,18,6.6,0.00001,0.00001,31.7,31.9,17,0,1,0.0,6.08,0.00,0.00
15min,AgWx,bigpiney,439,16APR2020:01:00:00,29.3,12.58,23.8,23.5,23.6,23.8,23.4,93,93,92,0.400,21.8,22.2,21.7,5.634,4.4,336,21,6.6,0.00001,0.00002,31.7,31.9,17,0,1,0.0,6.08,0.00,0.00
15min,AgWx,bigpiney,439,16APR2020:01:15:00,29.1,12.57,23.0,22.8,23.2,23.4,22.8,93,93,93,0.388,21.5,21.8,21.0,4.384,6.4,342,15,9.6,0.00002,0.00002,31.7,31.8,17,0,1,0.0,6.08,0.00,0.00
15min,AgWx,bigpiney,439,16APR2020:01:30:00,29.0,12.54,22.8,22.4,22.5,22.8,22.4,93,93,93,0.382,20.7,21.0,20.6,0.811,1.1,356,38,3.7,-0.00001,-0.00001,31.7,31.8,17,0,1,0.0,6.08,0.00,0.00
15min,AgWx,bigpiney,439,16APR2020:01:45:00,28.8,12.53,22.6,22.1,22.3,22.5,22.1,93,93,92,0.376,20.5,20.8,20.3,2.587,2.1,148,31,4.3,-0.00000,0.00000,31.7,31.9,17,0,1,0.0,6.08,0.00,0.00
15min,AgWx,bigpiney,439,16APR2020:02:00:00,28.6,12.55,22.4,22.1,22.2,22.3,22.1,92,93,92,0.376,20.3,20.4,20.2,1.951,0.8,160,35,3.6,-0.00001,-0.00002,31.7,31.8,17,0,1,0.0,6.08,0.00,0.00
15min,AgWx,bigpiney,439,16APR2020:02:15:00,28.4,12.53,21.7,21.4,21.6,22.1,21.4,92,92,92,0.362,19.7,20.3,19.4,0,1.6,178,24,4.1,-0.00000,-0.00000,31.7,31.8,17,0,1,0.0,6.08,0.00,0.00
15min,AgWx,bigpiney,439,16APR2020:02:30:00,28.2,12.51,21.4,21.1,21.3,21.4,21.1,91,92,91,0.353,19.1,19.5,18.8,0.417,0.8,212,25,3.3,-0.00001,-0.00001,31.7,31.9,17,0,1,0.0,6.08,0.00,0.00
15min,AgWx,bigpiney,439,16APR2020:02:45:00,28.0,12.49,21.6,21.4,21.3,21.4,21.1,89,91,88,0.346,18.5,18.8,18.2,3.551,3.4,206,12,6.4,0.00002,0.00002,31.7,31.8,17,0,1,0.0,6.08,0.00,0.00
15min,AgWx,bigpiney,439,16APR2020:03:00:00,27.7,12.5,21.6,21.0,21.2,21.3,21.0,89,89,88,0.346,18.3,18.4,18.2,2.609,2.0,234,14,3.2,0.00001,0.00001,31.7,31.9,17,0,1,0.0,6.08,0.00,0.00
15min,AgWx,bigpiney,439,16APR2020:03:15:00,27.5,12.5,21.2,20.9,21.0,21.2,20.9,89,89,88,0.341,18.2,18.5,18.0,2.916,2.5,209,15,4.1,0.00001,0.00002,31.7,31.9,17,0,1,0.0,6.08,0.00,0.00
15min,AgWx,bigpiney,439,16APR2020:03:30:00,27.2,12.48,21.0,20.6,20.7,20.9,20.5,88,89,88,0.334,17.8,18.1,17.5,3.201,3.0,215,5.3,5.3,0.00001,0.00002,31.7,31.8,17,0,1,0.0,6.08,0.00,0.00
15min,AgWx,bigpiney,439,16APR2020:03:45:00,26.9,12.46,20.8,20.3,20.5,20.7,20.3,88,88,87,0.329,17.4,17.6,17.1,3.244,2.7,208,6.9,4.1,0.00001,0.00002,31.7,31.9,17,0,1,0.0,6.08,0.00,0.00
15min,AgWx,bigpiney,439,16APR2020:04:00:00,26.6,12.45,20.5,20.1,20.2,20.4,20.1,88,88,87,0.328,17.1,17.2,17.0,3.749,3.2,207,4.6,4.3,0.00002,0.00002,31.7,31.8,17,0,1,0.0,6.08,0.00,0.00
15min,AgWx,bigpiney,439,16APR2020:04:15:00,26.4,12.43,20.4,20.1,20.2,20.3,20.1,87,88,87,0.325,17.1,17.2,16.9,5.722,5.8,215,5.3,8.4,0.00003,0.00004,31.7,31.9,17,0,1,0.0,6.08,0.00,0.00
15min,AgWx,bigpiney,439,16APR2020:04:30:00,26.1,12.42,20.1,19.8,19.9,20.1,19.7,89,90,88,0.329,17.0,17.2,16.9,6.248,6.3,209,6.2,8.0,0.00003,0.00004,31.7,31.9,17,0,1,0.0,6.08,0.00,0.00
15min,AgWx,bigpiney,439,16APR2020:04:45:00,25.9,12.4,20.0,19.6,19.7,19.8,19.6,90,90,90,0.329,17.2,17.3,17.1,6.752,7.1,206,5.0,8.7,0.00003,0.00003,31.7,31.9,17,0,1,0.0,6.08,0.00,0.00
15min,AgWx,bigpiney,439,16APR2020:05:00:00,25.7,12.38,20.0,19.6,19.6,19.7,19.6,90,90,89,0.326,17.1,17.2,17.0,7.651,7.1,203,5.1,9.2,0.00003,0.00003,31.8,31.8,17,0,1,0.0,6.08,0.00,0.00
15min,AgWx,bigpiney,439,16APR2020:05:15:00,25.4,12.37,19.8,19.4,19.5,19.6,19.4,88,89,87,0.316,16.6,17.0,16.2,7.848,7.9,200,4.3,9.8,0.00003,0.00004,31.8,31.9,17,0,1,0.0,6.08,0.00,0.00
15min,AgWx,bigpiney,439,16APR2020:05:30:00,25.2,12.36,19.5,19.3,19.4,19.5,19.2,88,88,87,0.317,16.3,16.4,16.1,6.533,7.1,205,4.8,10.4,0.00003,0.00004,31.8,31.9,17,0,1,0.0,6.08,0.00,0.00
15min,AgWx,bigpiney,439,16APR2020:05:45:00,25.0,12.35,18.6,18.2,18.8,19.2,18.2,89,89,88,0.306,16.0,16.3,15.5,5.765,6.4,202,3.8,8.1,0.00003,0.00003,31.8,31.8,17,0,1,0.0,6.08,0.00,0.00
15min,AgWx,bigpiney,439,16APR2020:06:00:00,24.6,12.35,17.8,17.4,17.8,18.3,17.4,88,89,88,0.291,14.9,15.6,14.4,5.787,6.0,205,3.5,7.3,0.00003,0.00003,31.8,31.9,17,0,1,0.0,6.08,0.00,0.00
15min,AgWx,bigpiney,439,16APR2020:06:15:00,24.2,12.33,17.3,16.9,17.0,17.4,16.6,87,88,87,0.283,13.9,14.4,13.5,6.511,5.7,197,3.7,7.0,0.00003,0.00003,31.8,31.8,17,0,1,0.0,6.08,0.00,0.00
15min,AgWx,bigpiney,439,16APR2020:06:30:00,23.7,12.32,17.8,17.3,17.2,17.3,16.9,87,87,86,0.286,14.0,14.2,13.7,7.563,7.3,196,3.3,8.4,0.00003,0.00004,31.8,31.9,17,1,1,0.0,6.08,0.00,0.00
15min,AgWx,bigpiney,439,16APR2020:06:45:00,23.3,12.32,17.7,17.4,17.4,17.5,17.3,87,87,86,0.286,14.0,14.2,13.9,6.774,7.3,196,6.2,7.9,0.00004,0.00005,31.8,31.9,17,5,1,0.0,6.08,0.00,0.00
15min,AgWx,bigpiney,439,16APR2020:07:00:00,23.0,12.32,17.7,17.4,17.3,17.4,17.2,86,87,86,0.284,13.9,14.0,13.8,5.48,6.1,211,3.5,7.3,-0.00003,0.00003,31.8,31.9,17,14,1,0.0,6.08,0.00,0.00
15min,AgWx,bigpiney,439,16APR2020:07:15:00,22.9,12.32,18.5,17.9,17.4,18.0,17.2,85,86,85,0.288,13.8,14.2,13.6,5.174,5.3,224,5.4,6.0,0.00006,0.00011,31.8,32.0,17,23,1,0.0,6.08,0.00,0.00
15min,AgWx,bigpiney,439,16APR2020:07:30:00,22.9,12.31,18.0,17.5,17.9,18.1,17.5,85,86,85,0.287,14.2,14.4,14.0,2.938,3.2,252,42,5.2,0.00008,0.00012,31.8,31.9,17,52,1,0.0,6.08,0.00,0.00
15min,AgWx,bigpiney,439,16APR2020:07:45:00,23.2,12.31,18.7,18.1,17.9,18.2,17.5,86,87,86,0.294,14.5,14.7,14.1,0,1.1,9.9,15,3.4,0.00014,0.00016,31.8,31.9,17,87,1,0.0,6.08,0.00,0.00
15min,AgWx,bigpiney,439,16APR2020:08:00:00,23.7,12.31,18.4,18.0,18.0,18.3,17.8,87,87,86,0.298,14.7,14.9,14.5,0,0.3,343,14,1.3,0.00026,0.00029,31.8,31.9,17,144,1,0.0,6.08,0.00,0.00
15min,AgWx,bigpiney,439,16APR2020:08:15:00,24.5,12.3,18.3,18.0,18.0,18.2,17.8,88,89,87,0.301,15.0,15.2,14.9,1.425,1.4,78,9.2,2.6,0.00038,0.00042,31.8,31.9,17,182,1,0.0,6.08,0.00,0.00